Location: Amherst
(42.5000°N, 72.5000°W)
Time: 06:51:53
(UTC-05:00)

ISS - Visible Passes

Search period start: 14 December 2018 00:00
Search period end: 24 December 2018 00:00
Orbit: 401 x 408 km, 51.6° (Epoch: 15 December)

Date Brightness Start Highest point End Pass type
(mag) Time Alt. Az. Time Alt. Az. Time Alt. Az.
14 Dec -1.0 17:27:27 10° W 17:29:58 21° SW 17:32:30 10° S visible
21 Dec -0.5 06:31:42 10° S 06:33:42 15° SE 06:35:44 10° E visible
23 Dec -2.0 06:22:24 10° SSW 06:25:27 35° SE 06:28:28 10° ENE visible
